Tracking 19212 objects as of 16-Jul-2018
HD Live streaming from Space Station
objects crossing your sky now

FENGYUN 1C DEB

Track FENGYUN 1C DEB now!
10-day predictions


NORAD ID: 31535
Int'l Code: 1999-025BYA
Perigee: 760.4 km
Apogee: 898.2 km
Inclination: 98.1 °
Period: 101.3 minutes
Semi major axis: 7200 km
RCS: 0.0151 m2 (small)
Launch date: May 10, 1999
Source: People's Republic of China (PRC)
Launch site: Taiyaun Space Center, China (TSC)

Note: This is SATELLITE DEBRIS
aabbcc
Your satellite tracking list
Your tracking list is empty




NASA's NSSDC Master Catalog

Two Line Element Set (TLE):
1 31535U 99025BYA 18196.86401798  .00000302  00000-0  15012-3 0  9997
2 31535  98.0521 230.9330 0095700 220.3675 139.0375 14.20940143582551
Source of the keplerian elements: AFSPC